Hourly Data Report for November 17, 2019

All times are specified in Local Standard Time (LST). Add 1 hour to adjust for Daylight Saving Time where and when it is observed.

PINAWA
MANITOBA
Current Station Operator: ECCC - MSC

50°10'38.020" N
96°03'53.000" W
268.00 m
503B1ER
71448
WEA

Download Data

Hourly Data (November 2019)
Hourly Data Report for November 17, 2019
TIME Temp Definition
°C
Dew Point Definition
°C
Rel Hum Definition
%
Wind Dir Definition
10's deg

Wind Spd Definition
km/h
Visibility Definition
km
Stn Press Definition
kPa
Hmdx Definition


Wind Chill Definition


Weather Definition


00:00 -1.0 LegendMM LegendMM 31 22   97.75   -7 LegendNANA
01:00 -1.9 LegendMM LegendMM 31 23   97.83   -8 LegendNANA
02:00 -2.7 LegendMM LegendMM 31 23   97.87   -9 LegendNANA
03:00 -3.3 LegendMM LegendMM 32 22   97.92   -10 LegendNANA
04:00 -3.8 LegendMM LegendMM 32 21   97.93   -10 LegendNANA
05:00 -4.1 LegendMM LegendMM 31 19   97.97   -10 LegendNANA
06:00 -4.2 LegendMM LegendMM 31 19   98.03   -10 LegendNANA
07:00 -4.4 LegendMM LegendMM 31 16   98.03   -10 LegendNANA
08:00 -4.5 LegendMM LegendMM 32 15   98.09   -10 LegendNANA
09:00 -4.5 LegendMM LegendMM 32 15   98.11   -10 LegendNANA
10:00 -4.4 LegendMM LegendMM 30 18   98.12   -10 LegendNANA
11:00 -4.1 LegendMM LegendMM 30 14   98.09   -9 LegendNANA
12:00 -3.7 LegendMM LegendMM 32 11   98.03   -8 LegendNANA
13:00 -3.4 LegendMM LegendMM 30 9   98.00   -7 LegendNANA
14:00 -3.1 LegendMM LegendMM 28 7   97.97   -6 LegendNANA
15:00 -3.3 LegendMM LegendMM 28 3   97.90   -5 LegendNANA
16:00 -3.4 LegendMM LegendMM 24 2   97.87   -4 LegendNANA
17:00 -3.4 LegendMM LegendMM 17 3   97.79   -5 LegendNANA
18:00 -3.4 LegendMM LegendMM 16 4   97.80   -5 LegendNANA
19:00 -3.3 LegendMM LegendMM 16 5   97.76   -5 LegendNANA
20:00 -3.3 LegendMM LegendMM 15 5   97.67   -5 LegendNANA
21:00 -3.2 LegendMM LegendMM 16 7   97.64   -6 LegendNANA
22:00 -3.2 LegendMM LegendMM 16 7   97.56   -6 LegendNANA
23:00 -2.9 LegendMM LegendMM 16 8   97.51   -6 LegendNANA

Notes on Data Quality.

Legend

  • E = Estimated
  • M = Missing
  • NA = Not Available
Date modified: